Location: ?????
(32.7281°N, 34.9563°E)
Time: 02:17:46
(UTC+00:00)

Cosmos 1939 Rocket - Pass Details

Date: 29 October 2020
Orbit: 532 x 584 km, 97.4° (Epoch: 25 November)

Event Time Altitude Azimuth Distance (km) Brightness Sun altitude
Rises 15:15:37 0° 141° (SE) 2,736 6.1 -5.7°
Reaches altitude 10° 15:18:01 10° 128° (SE) 1,835 5.1 -6.2°
Maximum altitude 15:21:18 25° 73° (ENE) 1,130 3.8 -6.8°
Drops below altitude 10° 15:24:33 10° 17° (NNE) 1,820 5.2 -7.5°
Sets 15:26:55 0° 4° (N) 2,708 6.2 -8.0°
